Simultaneous Nadir Overpasses (SNOs) Predictions

Prediction of SNOs between NPP and PACE Satellite Orbit:

Table of predicted SNOs for the next 14.0 days since TLE Epoch: 12/21/2024
Index Date (NPP) Time (NPP) Lat,Lon (NPP) SZA (NPP ) Date (PACE) Time (PACE) Lat,Lon (PACE) SZA (PACE ) Distance(km) Time Diff (sec)
1 12/22/2024 22:59:47 79.90, 157.10 105.27 12/22/2024 23:00:08 79.90, 157.14 105.26 0.74 21
2 12/22/2024 23:50:25 -79.69, -33.62 75.10 12/22/2024 23:49:12 -79.69, -33.53 75.09 2.02 73
3 12/25/2024 03:26:14 79.83, 91.18 105.13 12/25/2024 03:26:14 79.84, 91.11 105.14 1.62 0
4 12/27/2024 07:02:02 -79.94,-143.85 74.73 12/27/2024 07:03:15 -79.95,-143.99 74.74 2.73 73
5 12/27/2024 07:52:41 79.76, 25.21 104.95 12/27/2024 07:52:19 79.76, 25.15 104.96 1.18 22
6 12/29/2024 11:28:31 -79.94, 149.58 74.83 12/29/2024 11:29:21 -79.94, 149.57 74.85 0.14 50
7 12/29/2024 12:19:10 79.76, -41.39 104.85 12/29/2024 12:18:25 79.75, -41.29 104.85 1.99 45
8 12/31/2024 15:54:58 -79.88, 83.55 75.07 12/31/2024 15:55:25 -79.88, 83.49 75.07 1.36 27
9 12/31/2024 16:45:37 79.70,-107.45 104.62 12/31/2024 16:44:29 79.69,-107.39 104.63 1.32 68



Historial Predications of SNOs between NPP and PACE
